Location: Santiago
(33.4378°S, 70.6505°W)
Time: 07:20:25
(UTC+00:00)

ISS - Pass Details

Date: 14 June 2024
Orbit: 410 x 424 km, 51.6° (Epoch: 13 July)

Event Time Altitude Azimuth Distance (km) Brightness Sun altitude
Rises 21:46:55 0° 353° (N) 2,370 0.6 -1.8°
Reaches altitude 10° 21:49:41 10° 17° (NNE) 1,510 -0.8 -2.4°
Maximum altitude 21:51:41 15° 53° (NE) 1,251 -1.6 -2.7°
Drops below altitude 10° 21:53:41 10° 89° (E) 1,516 -1.5 -3.1°
Enters shadow 21:55:23 - 107° (ESE) 2,015 -1.0 -3.4°
